Wetbulb
76.28 72.87 73.95 67.80 69.89 72.92 75.77 72.47 76.22 76.49 75.90 76.06 75.19 74.66 73.47 73.97 73.71 74.39 74.16 74.11 72.76 75.89 75.60 75.62 74.63 74.98 74.61 73.72 76.06 75.34 74.92 74.68 74.76 74.80 73.68 73.91 73.34 72.88 73.16 72.32 71.55 71.49 71.52
74.83 73.87 72.52 72.00 71.38 73.34 77.82 77.82 75.70 76.71 76.23 74.01 75.96 74.51 74.26 73.87 75.21 74.84 72.07 72.82 74.35 76.49 77.02 75.89 75.38 75.17 75.99 75.85 75.37 74.90 74.60 74.46 74.78 74.79 73.75 73.60 72.88 72.86 72.50 71.85 71.80 71.31 71.66
72.79 69.33 71.12 71.23 77.20 78.69 78.39 77.78 76.98 76.88 74.44 74.05 74.58 75.10 74.18 74.32 75.58 75.23 75.27 74.35 75.33 77.64 76.56 76.93 76.64 76.48 76.31 75.68 74.42 74.34 74.57 74.89 74.99 74.87 74.43 73.97 73.08 72.71 72.64 71.78 70.84 70.91 69.80
72.94 72.43 73.31 76.28 77.57 77.99 77.76 77.52 75.26 75.34 73.04 72.11 68.00 66.18 73.73 75.21 71.70 69.84 71.21 74.65 75.26 75.86 76.31 76.68 76.97 75.92 75.97 75.79 74.17 74.12 74.93 74.87 75.20 75.98 75.02 74.14 73.63 72.46 72.93 72.64 72.24 72.50 71.77
78.91 75.71 77.57 77.40 78.22 76.93 77.17 73.74 72.66 76.27 74.10 68.49 65.53 65.95 69.51 74.48 72.85 73.67 74.92 74.61 75.10 75.13 74.82 75.83 76.74 76.41 76.22 76.85 75.51 75.40 75.75 75.55 75.43 76.61 74.84 74.56 73.63 73.13 72.55 72.19 71.81 71.17 70.60
77.17 78.72 77.99 77.86 77.38 76.11 76.47 78.02 78.23 77.30 76.57 75.09 72.49 72.20 71.98 72.34 74.35 74.05 74.42 73.97 75.86 76.02 73.95 72.55 72.14 73.63 76.02 77.91 76.87 75.71 75.70 75.81 76.18 76.59 75.54 74.97 73.93 73.15 72.54 71.72 71.18 71.63 70.85
78.91 79.27 77.38 77.59 76.84 76.20 77.64 77.57 77.74 76.58 75.32 76.29 74.38 71.22 67.36 69.67 68.86 71.00 73.76 74.20 75.49 74.36 74.99 73.15 73.14 73.73 74.60 77.07 76.93 76.02 76.26 76.08 75.73 75.98 75.49 74.88 74.27 73.46 72.68 72.09 71.32 70.81 70.54
78.79 78.25 79.00 78.47 78.44 77.07 77.10 77.30 78.37 76.21 75.23 76.43 72.56 71.12 64.28 67.19 71.26 71.57 73.42 74.37 73.72 72.00 75.81 75.82 74.06 75.27 74.87 74.98 75.29 75.43 75.46 76.53 76.69 75.99 75.83 75.34 74.72 74.08 73.14 72.53 71.93 71.26 69.36
77.99 78.83 78.86 78.72 78.40 78.05 76.30 78.29 78.20 77.65 74.05 75.12 76.20 72.77 67.92 67.26 69.57 69.82 71.57 70.54 72.45 71.28 74.51 70.45 71.48 75.53 76.28 75.62 75.17 74.22 74.29 74.89 74.86 75.17 75.63 75.65 74.80 74.36 73.67 73.00 72.45 71.71 70.03
78.08 78.03 78.88 77.65 78.42 77.68 78.46 77.60 77.70 78.10 77.26 74.15 75.01 75.96 75.43 73.91 68.86 67.49 71.27 70.17 72.44 72.70 71.47 68.88 70.48 72.57 75.16 75.22 74.50 74.09 73.30 73.13 73.14 73.47 74.02 74.09 75.37 74.96 74.33 73.89 73.22 72.35 71.17
78.65 77.62 78.21 77.65 77.77 77.02 78.43 78.90 78.63 79.22 77.58 76.77 74.09 73.65 73.59 74.83 75.00 71.48 67.27 69.61 69.27 71.60 72.63 71.83 68.62 74.13 76.07 74.28 73.30 72.61 72.20 71.69 71.42 71.80 72.21 72.55 72.70 73.37 74.44 75.14 74.17 73.37 72.43
76.77 78.66 77.62 78.07 78.97 78.27 77.50 78.45 79.73 79.06 78.72 77.68 76.84 75.62 72.24 72.50 70.50 71.93 69.62 69.59 68.88 69.59 74.46 73.80 74.63 75.18 75.50 74.52 73.81 72.55 71.39 70.36 69.99 69.91 70.19 70.70 71.05 71.79 72.20 72.75 74.39 74.54 73.69
74.65 76.15 78.60 78.19 78.27 77.76 77.59 77.77 78.69 78.63 78.44 77.56 77.69 75.91 74.92 74.98 74.80 73.50 71.84 71.05 70.18 69.10 72.15 73.52 71.76 75.92 75.09 75.07 73.00 71.94 70.57 69.12 68.42 68.22 68.33 68.17 69.13 69.91 70.97 71.55 72.10 74.22 74.76
71.65 76.88 77.47 77.77 78.80 77.88 78.89 78.79 78.00 76.71 75.27 77.59 77.27 77.88 76.41 75.68 75.46 73.25 70.43 72.60 69.43 68.48 72.37 70.57 75.39 73.65 71.17 73.96 74.94 72.01 68.84 68.02 67.11 66.85 66.85 67.05 67.85 69.38 70.77 71.73 71.99 73.29 74.98
75.13 76.23 76.86 77.14 77.74 79.00 78.02 77.30 76.64 76.63 78.09 77.81 77.38 77.06 77.11 75.60 76.43 74.75 75.12 74.73 72.66 68.54 68.81 69.97 70.47 74.19 74.62 74.60 73.45 74.46 70.11 67.38 66.80 66.21 66.27 66.16 66.87 67.99 69.12 69.79 70.17 70.73 71.08
74.24 71.88 70.80 73.46 78.30 75.91 76.69 79.37 77.62 76.81 77.89 77.56 76.75 77.08 77.52 76.74 75.75 73.96 75.98 75.41 75.57 72.52 68.80 72.83 70.22 71.49 74.65 74.74 74.74 74.83 70.52 67.61 66.53 65.76 65.50 65.61 65.96 66.23 67.01 67.41 67.91 68.40 68.91
71.43 72.01 67.92 70.41 77.99 76.20 77.13 78.09 77.89 76.28 76.20 77.35 78.03 77.03 76.92 77.65 75.98 74.89 75.95 74.93 74.49 74.39 71.51 72.75 75.26 75.44 76.28 75.65 75.68 72.73 69.35 68.04 66.20 65.16 64.50 64.47 64.24 64.40 64.68 64.62 64.57 65.25 65.96
76.81 74.19 73.53 75.47 77.92 77.74 77.80 76.44 76.08 76.09 75.59 75.76 75.56 76.36 76.58 75.65 75.36 76.46 74.18 73.16 74.06 74.89 72.92 71.21 73.74 74.09 74.82 75.70 75.32 74.61 75.27 70.26 66.08 64.70 63.60 62.88 62.58 61.67 61.19 60.87 60.76 61.07 61.61
77.26 77.01 76.75 77.08 76.95 77.55 77.48 76.88 77.30 77.43 75.88 76.67 75.82 76.46 76.35 75.28 75.11 75.84 75.89 74.01 74.25 74.62 74.30 72.40 72.19 73.42 74.48 74.90 74.29 74.44 72.96 69.24 66.37 63.92 62.63 62.05 61.64 61.04 60.11 59.32 58.93 58.00 58.04
76.71 76.72 77.28 77.48 77.37 77.45 77.56 77.33 76.84 76.33 77.06 76.89 77.22 77.79 76.83 75.63 75.43 76.11 75.99 75.33 75.60 73.25 73.51 72.27 71.79 71.65 72.96 74.13 73.51 71.64 71.15 69.33 64.52 65.15 64.39 62.35 61.49 60.99 60.23 59.93 59.49 58.30 56.82
77.29 77.26 76.98 76.94 77.03 76.96 76.19 76.63 77.40 76.86 77.13 76.67 77.44 77.28 76.96 74.68 69.82 69.97 75.54 75.75 75.11 73.63 73.38 72.39 71.37 71.71 71.28 71.57 71.02 72.48 71.18 70.46 67.25 64.47 61.13 60.95 60.97 59.88 58.94 58.23 57.62 57.31 56.52
77.07 77.19 76.76 76.65 76.59 75.98 71.52 70.78 75.33 76.13 76.14 76.39 76.06 76.41 75.82 70.49 68.67 67.30 66.54 65.90 68.29 71.23 71.68 72.11 71.82 70.81 70.63 70.65 70.67 70.95 70.70 69.69 65.76 65.17 61.71 57.32 58.36 55.85 54.67 54.14 55.37 54.94 54.96
77.23 77.16 76.97 76.43 76.29 76.42 69.38 66.95 70.83 75.98 76.13 76.02 76.41 76.69 76.04 75.32 73.09 69.28 65.36 65.16 65.32 65.56 66.87 68.69 69.66 68.10 67.77 66.83 68.68 68.86 68.54 64.87 62.77 62.73 61.26 56.36 57.63 55.30 55.60 54.15 54.43 54.19 53.75
76.33 76.54 76.58 77.40 76.92 76.75 64.88 64.94 68.34 75.08 75.45 75.94 76.42 76.22 77.06 75.77 72.69 72.71 70.77 69.97 65.57 62.65 62.52 66.74 64.93 62.68 62.74 61.99 65.36 68.76 66.12 64.09 63.77 63.74 64.50 57.17 57.89 56.21 57.38 56.44 54.98 53.57 52.99
75.70 75.81 76.49 76.54 76.09 76.52 62.26 63.35 68.09 74.40 74.34 75.21 75.73 72.73 75.17 71.48 63.06 64.18 71.97 66.14 64.09 61.32 57.57 57.67 57.51 57.18 57.41 58.33 61.12 67.61 66.16 63.18 61.32 62.45 64.19 61.30 59.61 58.05 58.05 57.35 56.62 55.08 53.35
74.39 75.41 75.38 75.89 72.09 75.94 61.70 62.26 64.89 74.36 73.12 73.47 69.94 67.58 60.63 66.01 60.17 61.60 70.51 66.27 64.52 63.88 62.82 62.45 60.29 59.85 59.01 60.40 62.57 65.46 62.82 64.60 63.38 61.96 64.10 62.62 60.57 60.83 58.77 59.41 57.50 55.07 54.01
MSLP
1015.73 1016.67 1015.95 1014.79 1016.56 1016.68 1014.82 1015.40 1014.78 1014.63 1014.40 1014.05 1013.72 1013.83 1014.17 1014.49 1014.67 1015.20 1016.38 1015.18 1016.48 1016.34 1016.29 1016.39 1016.36 1016.49 1016.60 1016.67 1016.63 1016.55 1016.62 1016.79 1016.93 1017.05 1017.16 1017.21 1017.40 1017.55 1017.64 1017.69 1017.83 1018.04 1018.22
1016.29 1016.27 1016.27 1017.88 1016.61 1016.12 1014.62 1014.44 1014.72 1014.74 1014.29 1014.50 1014.17 1014.12 1014.32 1014.34 1014.45 1014.54 1015.59 1014.95 1016.09 1016.25 1016.21 1016.35 1016.21 1016.27 1016.48 1016.54 1016.64 1016.71 1016.74 1016.90 1017.08 1017.23 1017.36 1017.44 1017.53 1017.56 1017.65 1017.79 1017.90 1018.09 1018.15
1017.33 1017.47 1016.72 1016.49 1015.88 1015.68 1014.80 1014.71 1014.62 1014.41 1014.13 1014.26 1014.17 1014.45 1014.60 1014.36 1014.29 1014.42 1014.86 1015.71 1015.92 1016.32 1016.33 1016.50 1016.40 1016.40 1016.47 1016.58 1016.85 1016.96 1016.95 1016.93 1017.08 1017.19 1017.40 1017.53 1017.62 1017.65 1017.71 1017.84 1017.96 1018.02 1018.11
1016.10 1015.56 1015.78 1015.02 1015.10 1015.27 1014.94 1014.94 1014.97 1014.42 1014.44 1014.84 1015.01 1015.33 1015.26 1014.08 1015.70 1015.42 1015.57 1014.65 1015.73 1016.03 1016.71 1016.67 1016.67 1016.59 1016.57 1016.53 1016.75 1016.98 1017.02 1016.88 1016.96 1017.11 1017.33 1017.48 1017.59 1017.67 1017.79 1017.93 1018.06 1018.08 1018.08
1015.41 1015.25 1015.10 1015.56 1015.78 1015.53 1015.29 1015.30 1015.43 1014.74 1014.86 1015.79 1015.85 1016.15 1015.70 1014.56 1015.57 1015.03 1014.62 1014.62 1014.96 1015.90 1016.04 1016.51 1016.87 1017.01 1016.75 1016.59 1016.65 1016.88 1016.87 1016.72 1016.71 1016.95 1017.23 1017.36 1017.61 1017.77 1017.84 1018.01 1018.13 1018.04 1017.99
1016.00 1016.11 1016.02 1016.09 1016.16 1016.03 1015.74 1015.45 1015.37 1015.47 1015.48 1015.49 1015.54 1015.67 1016.44 1015.58 1015.25 1014.64 1014.13 1014.37 1014.86 1014.86 1016.14 1016.45 1016.31 1016.85 1016.89 1016.72 1016.72 1016.86 1016.89 1016.74 1016.67 1016.92 1017.16 1017.30 1017.52 1017.73 1017.81 1017.89 1017.98 1018.02 1018.04
1015.96 1016.13 1016.23 1016.05 1016.12 1016.06 1015.91 1015.85 1015.93 1016.11 1015.91 1015.75 1015.72 1016.44 1015.97 1015.70 1015.80 1015.47 1014.14 1014.35 1014.59 1014.59 1015.41 1015.76 1016.66 1017.48 1016.88 1016.83 1016.81 1016.89 1016.92 1016.75 1016.66 1016.82 1017.06 1017.32 1017.51 1017.69 1017.73 1017.84 1017.89 1017.91 1018.00
1015.79 1016.06 1016.09 1016.07 1015.91 1015.94 1016.00 1016.19 1016.30 1016.44 1016.13 1015.86 1015.87 1016.00 1017.50 1017.65 1016.92 1015.55 1014.70 1014.17 1015.34 1016.55 1014.84 1015.55 1016.58 1016.37 1016.66 1016.78 1016.79 1016.96 1016.92 1016.71 1016.57 1016.63 1016.76 1017.07 1017.36 1017.55 1017.71 1017.76 1017.87 1017.99 1018.04
1015.48 1015.79 1015.75 1015.79 1015.93 1015.91 1016.16 1016.25 1016.34 1016.41 1016.36 1016.20 1015.84 1015.91 1016.78 1016.74 1016.16 1015.43 1015.06 1014.98 1015.09 1015.27 1015.83 1015.61 1016.84 1016.60 1016.45 1016.82 1016.72 1016.94 1016.94 1016.71 1016.65 1016.69 1016.76 1016.79 1017.04 1017.25 1017.45 1017.64 1017.82 1018.01 1018.11
1015.11 1015.40 1015.50 1015.64 1015.86 1016.13 1016.10 1016.17 1016.30 1016.36 1016.36 1016.27 1015.74 1015.48 1015.66 1015.98 1016.02 1016.15 1015.52 1015.32 1014.87 1015.08 1015.64 1015.51 1015.88 1016.78 1016.41 1016.96 1016.97 1016.89 1017.12 1017.10 1017.02 1016.89 1016.91 1016.96 1016.98 1017.03 1017.17 1017.33 1017.56 1017.77 1018.00
1014.82 1015.07 1015.33 1015.68 1015.99 1016.12 1016.10 1016.09 1016.15 1016.18 1016.26 1016.21 1015.89 1015.66 1015.59 1015.50 1015.72 1015.67 1015.63 1015.47 1015.00 1014.90 1015.82 1015.33 1015.82 1016.13 1016.26 1016.74 1016.85 1016.99 1017.14 1017.33 1017.41 1017.28 1017.11 1017.14 1017.22 1017.18 1017.14 1017.09 1017.21 1017.39 1017.66
1015.05 1015.07 1015.36 1015.73 1015.92 1016.24 1016.07 1015.96 1015.94 1016.07 1016.15 1016.11 1016.02 1016.06 1015.96 1015.56 1015.31 1015.40 1015.50 1015.73 1015.80 1015.47 1015.14 1014.95 1015.65 1016.13 1016.06 1016.87 1016.67 1016.91 1017.34 1017.52 1017.71 1017.76 1017.59 1017.46 1017.35 1017.34 1017.28 1017.18 1017.11 1017.25 1017.49
1014.75 1014.92 1015.29 1015.65 1015.95 1016.10 1016.08 1015.84 1015.97 1016.01 1016.03 1016.07 1016.03 1016.02 1015.80 1015.57 1015.20 1015.13 1015.48 1015.78 1016.04 1015.83 1015.64 1015.17 1015.35 1016.04 1016.53 1017.17 1017.20 1016.90 1017.20 1017.78 1018.01 1018.12 1018.12 1017.94 1017.69 1017.55 1017.38 1017.13 1017.13 1017.15 1017.30
1014.78 1014.76 1014.86 1015.24 1015.52 1015.86 1015.60 1015.76 1016.06 1016.03 1015.86 1015.96 1016.06 1015.90 1015.75 1015.60 1015.45 1015.54 1015.87 1015.84 1015.80 1015.82 1015.59 1015.79 1015.47 1015.46 1015.44 1016.99 1017.21 1017.25 1017.33 1017.72 1018.17 1018.25 1018.25 1018.12 1017.92 1017.71 1017.53 1017.15 1017.17 1017.36 1017.27
1014.09 1014.80 1015.06 1014.51 1014.61 1015.16 1015.39 1015.79 1016.17 1016.13 1015.83 1015.81 1015.97 1015.96 1015.85 1015.60 1015.52 1015.41 1015.31 1015.47 1015.98 1016.31 1016.29 1016.06 1016.18 1016.27 1016.21 1016.20 1015.82 1016.93 1017.26 1017.74 1018.14 1018.37 1018.42 1018.43 1018.23 1018.02 1017.85 1017.69 1017.62 1017.64 1017.62
1014.97 1015.42 1014.99 1015.21 1014.47 1014.95 1015.38 1015.63 1015.85 1016.03 1015.78 1015.71 1015.77 1015.88 1015.87 1015.68 1015.60 1015.34 1015.23 1015.35 1015.88 1016.33 1016.33 1016.26 1016.39 1015.87 1015.71 1015.65 1015.71 1016.19 1016.83 1017.75 1018.36 1018.68 1018.68 1018.69 1018.64 1018.55 1018.40 1018.27 1018.24 1018.24 1018.20
1013.38 1015.26 1014.98 1013.99 1014.55 1014.99 1015.34 1015.66 1015.89 1016.34 1016.06 1015.73 1015.67 1015.74 1015.81 1015.63 1015.52 1015.55 1015.48 1015.49 1015.77 1016.12 1016.24 1015.99 1015.68 1015.55 1015.25 1015.20 1015.53 1016.27 1017.04 1017.92 1018.72 1018.73 1018.74 1018.81 1018.91 1018.93 1018.94 1018.93 1018.87 1018.78 1018.75
1013.78 1013.97 1014.30 1014.61 1014.99 1014.98 1015.20 1015.58 1015.85 1015.68 1015.78 1015.69 1015.67 1015.71 1015.74 1015.59 1015.58 1015.65 1015.67 1015.81 1015.70 1015.81 1016.15 1016.14 1015.82 1015.82 1015.59 1015.54 1015.92 1015.98 1016.19 1017.31 1018.30 1018.91 1019.00 1018.98 1019.11 1019.29 1019.41 1019.34 1019.30 1019.32 1019.27
1013.71 1013.90 1014.24 1014.73 1014.88 1014.78 1014.96 1015.21 1015.44 1015.39 1015.46 1015.17 1015.13 1015.37 1015.58 1015.84 1015.86 1015.84 1015.70 1016.10 1016.16 1015.95 1016.26 1016.46 1016.41 1016.14 1015.94 1015.92 1015.93 1016.16 1016.83 1017.74 1018.57 1019.21 1019.29 1019.30 1019.48 1019.63 1019.77 1019.84 1019.91 1020.00 1020.01
1013.31 1013.77 1013.94 1014.14 1014.29 1014.40 1014.62 1014.67 1014.89 1015.12 1015.10 1014.86 1014.90 1015.06 1015.40 1015.67 1015.82 1015.80 1015.93 1016.05 1016.16 1016.39 1016.50 1016.57 1016.59 1016.56 1016.47 1016.28 1016.30 1016.60 1017.03 1017.97 1018.90 1018.55 1019.03 1019.67 1019.94 1020.23 1020.39 1020.45 1020.48 1020.59 1020.69
1012.44 1013.04 1013.41 1013.70 1013.91 1014.08 1014.01 1014.08 1014.30 1014.65 1014.67 1014.59 1014.70 1014.89 1015.10 1015.35 1015.61 1015.80 1015.92 1016.15 1016.41 1016.56 1016.61 1016.81 1016.73 1016.72 1016.70 1016.69 1016.75 1016.80 1017.06 1017.82 1018.62 1018.97 1019.70 1020.11 1020.21 1020.40 1020.61 1020.84 1020.90 1020.95 1021.00
1011.82 1012.29 1012.66 1012.90 1013.13 1013.35 1013.39 1013.53 1013.86 1014.05 1014.17 1014.29 1014.62 1014.71 1015.00 1015.41 1015.98 1016.05 1016.16 1016.41 1016.67 1016.89 1017.12 1017.13 1016.99 1017.06 1017.17 1017.23 1017.12 1017.19 1017.29 1017.60 1018.51 1019.52 1019.88 1020.58 1020.45 1020.96 1021.24 1021.37 1021.42 1021.39 1021.41
1011.32 1011.78 1012.12 1012.50 1012.68 1012.81 1012.90 1013.06 1013.26 1013.46 1013.66 1013.97 1014.29 1014.55 1014.73 1015.26 1015.78 1016.20 1016.54 1016.80 1017.06 1017.26 1017.48 1017.48 1017.37 1017.58 1017.69 1017.87 1017.63 1017.52 1017.74 1018.21 1019.01 1019.65 1019.75 1020.74 1021.12 1021.35 1021.69 1021.78 1021.64 1021.69 1021.69
1010.90 1011.27 1011.55 1011.81 1012.19 1012.36 1012.46 1012.65 1012.90 1013.18 1013.45 1013.77 1014.06 1014.32 1014.49 1014.97 1015.46 1015.94 1016.46 1016.90 1017.49 1017.78 1017.92 1017.66 1017.83 1018.15 1018.07 1018.17 1017.94 1017.65 1018.12 1018.76 1019.21 1019.52 1019.57 1020.39 1021.16 1021.36 1021.46 1021.51 1021.72 1021.83 1021.87
1010.78 1010.79 1010.99 1011.28 1011.58 1011.78 1012.35 1012.57 1012.95 1013.14 1013.33 1013.52 1013.88 1014.54 1014.68 1015.23 1015.57 1015.79 1016.25 1016.93 1017.51 1018.09 1018.46 1018.34 1018.38 1018.34 1018.13 1017.98 1017.78 1017.65 1018.10 1018.60 1019.14 1019.34 1019.39 1019.75 1020.50 1020.72 1020.99 1021.09 1021.34 1021.55 1021.57
1010.48 1010.54 1010.57 1010.65 1010.86 1011.34 1012.00 1012.47 1013.10 1012.71 1012.95 1013.32 1014.29 1015.00 1015.19 1015.50 1015.83 1015.86 1015.95 1016.60 1017.33 1017.66 1017.92 1018.31 1018.48 1018.35 1018.06 1017.68 1017.43 1017.59 1017.91 1018.12 1018.43 1018.99 1019.22 1019.38 1019.56 1019.80 1020.31 1020.39 1020.61 1021.08 1021.29
Wind_Speed
2 3 6 3 4 9 5 12 3 3 4 6 2 5 5 4 4 5 8 7 6 6 6 3 1 1 1 2 2 4 4 3 3 3 1 1 1 3 5 3 2 1 2
7 7 9 8 6 10 3 4 3 4 4 9 3 2 5 6 5 4 7 5 15 9 9 7 6 7 3 4 4 3 3 2 2 3 1 3 1 3 4 4 5 4 4
15 7 5 6 3 3 4 4 2 5 4 5 4 3 4 2 2 7 7 4 7 12 11 10 8 6 3 4 2 0 1 1 2 3 4 4 4 4 5 5 5 6 3
13 9 4 2 5 5 4 1 5 1 10 10 6 9 9 3 18 8 17 4 8 8 7 9 7 7 3 3 2 2 2 2 2 3 4 5 5 5 6 4 5 6 5
0 6 2 5 5 5 4 8 8 4 4 7 7 8 9 1 12 8 9 4 5 10 5 7 3 4 5 5 5 2 1 2 3 4 5 6 5 6 7 7 5 5 3
5 3 2 3 3 5 5 4 5 5 5 5 3 6 7 11 7 5 5 6 5 6 11 13 7 4 7 5 5 2 1 1 4 5 6 5 5 5 5 6 5 4 3
5 2 3 3 3 3 4 5 4 5 5 4 3 7 10 12 13 13 3 5 6 2 14 11 4 4 3 8 6 4 2 2 3 3 4 4 5 5 5 5 4 4 4
5 5 2 3 2 3 2 1 3 3 3 3 2 1 1 4 6 8 10 1 13 12 4 13 11 9 5 5 7 7 5 6 6 4 2 5 5 5 5 4 3 2 3
6 4 3 1 4 3 2 2 3 4 3 3 2 0 1 2 1 5 2 6 8 8 5 14 15 5 8 4 8 7 6 7 7 6 6 2 3 4 4 4 4 3 2
5 7 5 2 2 3 1 3 3 2 2 3 1 2 3 2 1 3 1 4 1 3 13 8 10 9 10 4 8 11 8 7 7 8 8 6 5 2 4 5 5 4 3
5 5 5 3 3 4 2 3 3 1 3 3 3 3 3 3 5 2 1 2 4 3 6 7 6 6 8 7 6 7 9 7 6 7 7 7 7 6 5 5 7 7 6
5 5 6 4 3 3 5 3 1 1 2 3 4 4 4 4 3 3 1 2 3 4 1 4 6 5 7 4 9 13 9 6 6 6 7 7 7 7 6 4 3 8 6
5 8 6 6 4 4 5 3 3 3 2 2 2 3 4 4 4 3 3 2 2 1 2 2 1 7 8 4 4 11 11 8 7 6 6 6 7 7 7 6 3 2 9
2 6 8 7 5 6 5 4 3 2 1 0 3 3 4 4 3 2 1 2 4 3 2 3 1 6 9 4 4 11 8 10 8 6 6 6 7 8 10 9 5 2 3
7 4 6 9 8 6 6 5 4 5 4 3 2 5 3 4 4 3 2 2 3 3 3 4 3 8 4 7 10 6 7 9 10 8 7 7 8 8 10 11 12 11 10
7 7 8 6 5 5 6 3 4 5 2 3 1 1 3 3 5 4 1 1 2 2 3 2 2 3 9 6 5 8 8 11 10 8 10 9 9 9 10 11 11 11 10
3 9 7 5 3 2 5 4 4 5 5 5 3 4 5 5 4 1 1 2 1 2 2 3 2 5 2 6 4 7 10 7 5 10 12 12 11 11 12 12 13 12 12
6 9 10 8 4 5 3 5 7 5 6 5 6 4 5 3 1 5 2 5 3 4 3 4 4 4 1 4 3 5 5 8 8 10 13 14 13 13 12 13 12 12 11
8 9 9 8 7 7 6 8 6 5 6 6 5 6 4 5 4 3 2 4 5 4 4 3 4 5 2 2 2 1 8 7 7 13 13 15 14 14 13 13 13 12 11
11 10 8 9 9 8 7 6 8 8 7 7 4 1 4 5 5 5 0 3 3 4 3 3 3 3 2 2 2 3 2 5 6 8 11 11 13 15 14 12 13 13 12
11 10 9 8 10 11 9 9 7 8 6 6 2 4 4 7 7 5 1 3 4 3 3 3 3 3 3 3 3 3 3 7 7 4 5 5 5 5 6 10 12 13 12
9 10 11 11 10 9 13 13 10 7 8 6 5 5 5 9 6 9 10 10 6 3 3 3 1 2 3 4 5 3 3 1 3 3 3 4 5 5 4 4 10 11 11
9 9 10 11 11 11 10 10 14 8 4 4 5 5 3 4 8 8 8 9 10 10 6 2 4 5 3 5 4 4 4 4 3 1 3 2 1 2 2 3 6 7 6
10 10 10 10 10 9 10 10 10 6 5 5 5 5 3 6 4 8 7 7 8 7 6 5 6 3 3 2 3 3 6 6 4 2 2 3 2 2 3 3 4 3 4
10 10 9 10 11 10 8 8 9 7 7 6 2 5 2 6 6 6 7 9 8 6 6 8 7 5 2 2 2 1 3 3 2 1 1 3 3 3 3 3 4 8 6
9 8 11 12 13 12 11 11 8 7 8 6 7 4 8 6 5 7 6 10 7 6 5 4 2 2 5 2 7 6 5 2 4 3 2 2 5 4 3 3 5 5 5
Wind_Direction
242 135 119 108 23 313 213 182 201 245 184 264 301 336 359 335 52 134 102 52 235 188 146 140 5 139 294 319 352 88 81 85 102 104 102 161 119 184 169 169 203 204 142
45 20 50 300 97 259 17 46 83 272 262 204 142 310 314 24 62 40 153 190 215 189 153 143 122 111 107 78 58 58 64 57 85 110 122 116 120 153 150 155 169 157 140
111 263 145 251 136 272 342 313 265 297 276 263 209 166 259 195 170 5 109 185 161 190 154 147 135 116 76 99 95 170 147 93 139 135 155 155 144 153 160 155 162 159 162
139 219 298 352 355 309 242 243 316 17 322 41 359 350 313 244 88 251 259 112 176 147 166 149 159 148 141 133 131 181 189 169 164 148 166 163 153 151 140 146 154 140 123
293 313 171 62 321 310 292 88 275 26 335 124 102 266 274 346 138 195 210 167 118 132 150 122 64 238 177 187 163 191 230 220 189 177 180 162 158 149 145 144 145 131 113
178 311 318 80 294 289 19 18 26 350 328 323 3 235 11 353 356 268 186 134 131 131 115 109 262 235 201 219 165 157 274 217 192 185 179 165 168 161 147 141 136 107 81
149 249 296 182 235 273 51 344 347 317 286 54 302 70 19 341 310 294 77 135 127 204 128 157 170 236 175 195 162 136 64 103 144 174 166 168 177 172 159 143 130 112 91
128 226 286 336 53 350 127 316 322 315 339 102 313 298 288 348 273 300 32 355 82 2 208 155 177 171 176 183 148 129 97 73 79 75 140 181 193 187 171 156 144 121 87
177 215 199 279 334 298 185 219 239 278 320 12 216 333 120 292 62 316 22 318 118 179 41 35 342 241 164 117 145 115 90 65 55 48 41 90 175 185 183 173 161 145 114
201 169 212 187 207 314 34 230 225 309 331 302 287 183 193 176 296 310 293 264 43 95 123 175 207 284 137 130 89 107 94 68 57 50 41 36 35 250 207 188 179 173 163
176 204 141 143 200 241 145 234 174 343 349 328 358 357 313 216 229 257 342 312 357 133 157 166 187 227 145 129 121 109 101 83 65 58 50 42 31 13 359 241 200 184 180
190 206 152 164 239 236 213 197 290 227 297 328 334 332 324 308 287 69 350 67 19 299 83 114 128 168 103 90 115 121 111 97 75 57 52 44 34 18 1 334 284 207 196
178 185 162 175 199 220 261 153 239 256 279 270 289 321 304 350 351 23 2 12 23 14 193 160 195 79 76 75 137 130 124 111 93 75 60 50 41 25 360 321 261 263 196
297 182 173 185 183 206 232 218 235 282 214 249 271 325 309 325 356 81 283 337 336 8 31 296 144 105 122 200 149 135 122 125 117 106 94 73 49 36 25 35 122 131 48
244 136 195 180 177 189 215 156 243 225 195 213 255 235 296 293 321 230 173 5 67 348 341 347 39 39 125 166 169 164 124 144 137 127 98 78 66 51 52 59 69 78 75
122 127 264 315 173 180 214 216 271 242 249 278 286 130 259 311 314 342 307 92 133 178 302 124 278 182 225 163 166 142 137 147 125 113 100 80 68 62 59 61 63 64 67
66 118 215 289 256 187 236 162 267 271 228 235 278 236 237 250 280 51 345 339 195 155 271 305 347 222 271 100 133 126 152 125 122 122 111 94 77 68 65 62 62 64 63
181 198 203 230 232 233 239 189 228 267 230 231 237 256 284 325 29 310 12 326 268 178 213 325 301 355 333 125 76 196 163 137 125 125 113 100 91 82 73 70 70 72 77
195 224 189 206 224 225 221 193 212 254 269 258 209 209 259 289 264 254 14 349 345 360 2 19 304 355 348 15 281 250 104 98 100 118 104 95 92 86 78 70 64 59 60
190 209 215 201 207 208 230 224 197 214 237 249 247 216 217 232 264 250 186 333 330 349 351 350 328 342 33 347 46 72 68 117 139 142 93 99 97 87 80 73 70 62 55
191 198 212 216 204 214 217 218 209 209 217 246 257 192 264 109 93 71 71 61 9 337 332 349 342 360 358 8 14 13 37 109 62 93 112 114 134 104 78 69 73 69 69
203 198 208 215 214 220 221 210 198 210 220 215 233 243 144 125 109 97 95 81 70 14 355 355 326 15 32 17 23 33 10 52 118 28 92 41 57 74 71 68 86 78 69
209 215 214 222 225 217 232 206 199 205 206 229 214 219 226 155 163 129 112 111 93 65 37 256 78 37 61 28 345 31 54 83 79 102 109 101 40 98 110 116 97 86 73
216 218 224 220 223 229 189 192 184 195 199 229 239 237 189 158 82 146 157 122 91 60 25 51 68 69 74 336 305 51 105 110 104 91 124 104 179 148 185 151 152 126 107
232 229 226 228 228 230 189 202 180 195 209 223 163 40 140 139 138 135 142 130 116 114 87 85 108 137 150 252 293 198 122 115 123 88 38 115 177 153 189 175 175 196 189
252 243 234 228 230 230 185 205 229 217 203 153 125 117 33 124 156 165 168 144 142 135 138 151 161 244 227 114 57 57 11 153 144 150 132 203 179 190 185 167 171 173 198